This demonstration page uses our WeatherBlox Daily Observations layout. Learn more.

Left ArrowRight Arrow

34.16533, -84.80231

Hourly Observations for August 14, 2022

Temp ( °F °C ) Dew Point ( °F °C ) Humidity (%) Winds ( mph kmh ) Pressure ( in mb ) Visibility ( mi km ) Precip ( " mm )
12:15 am 00:15 Clear 70 21 70 21 100 100 Calm 30.07 1018 9 14 0.00 0.00
12:35 am 00:35 Clear 70 21 68 20 94 94 Calm 30.07 1018 10 16 0.00 0.00
12:55 am 00:55 Clear 70 21 68 20 94 94 Calm 30.07 1018 8 13 0.00 0.00
1:15 am 01:15 Clear 70 21 68 20 94 94 Calm 30.07 1018 10 16 0.00 0.00
1:35 am 01:35 Clear 70 21 68 20 94 94 Calm 30.06 1018 9 14 0.00 0.00
1:55 am 01:55 Clear 70 21 68 20 94 94 Calm 30.05 1018 9 14 0.00 0.00
2:15 am 02:15 Clear 70 21 68 20 94 94 Calm 30.05 1018 9 14 0.00 0.00
2:35 am 02:35 Clear 70 21 68 20 94 94 Calm 30.05 1018 9 14 0.00 0.00
2:55 am 02:55 Clear 70 21 68 20 94 94 Calm 30.04 1017 10 16 0.00 0.00
3:15 am 03:15 Clear 68 20 68 20 100 100 Calm 30.04 1017 9 14 0.00 0.00
3:35 am 03:35 Mostly Clear 68 20 68 20 100 100 Calm 30.04 1017 10 16 0.00 0.00
3:55 am 03:55 Clear 70 21 68 20 94 94 Calm 30.04 1017 10 16 0.00 0.00
4:15 am 04:15 Clear 68 20 66 19 94 94 Calm 30.04 1017 10 16 0.00 0.00
4:35 am 04:35 Clear 68 20 66 19 94 94 Calm 30.03 1017 10 16 0.00 0.00
4:55 am 04:55 Clear 68 20 66 19 94 94 Calm 30.03 1017 9 14 0.00 0.00
5:15 am 05:15 Partly Cloudy 68 20 66 19 94 94 Calm 30.03 1017 8 13 0.00 0.00
5:35 am 05:35 Cloudy 68 20 66 19 94 94 Calm 30.03 1017 9 14 0.00 0.00
5:55 am 05:55 Cloudy 68 20 66 19 94 94 Calm 30.03 1017 10 16 0.00 0.00
6:15 am 06:15 Cloudy 68 20 66 19 94 94 Calm 30.03 1017 9 14 0.00 0.00
6:35 am 06:35 Mostly Cloudy 66 19 66 19 100 100 Calm 30.04 1017 7 11 0.00 0.00
6:55 am 06:55 Mostly Clear 66 19 66 19 100 100 Calm 30.04 1017 7 11 0.00 0.00
7:15 am 07:15 Sunny 68 20 66 19 94 94 Calm 30.04 1017 9 14 0.00 0.00
7:35 am 07:35 Mostly Sunny 68 20 66 19 94 94 Calm 30.05 1018 9 14 0.00 0.00
7:55 am 07:55 Sunny with Mist and Fog 68 20 66 19 94 94 Calm 30.05 1018 6 10 0.00 0.00
8:15 am 08:15 Sunny 68 20 68 20 100 100 Calm 30.04 1017 8 13 0.00 0.00
8:35 am 08:35 Sunny 70 21 68 20 94 94 Calm 30.05 1018 8 13 0.00 0.00
8:55 am 08:55 Mostly Cloudy 72 22 68 20 88 88 Calm 30.06 1018 9 14 0.00 0.00
9:15 am 09:15 Cloudy 73 23 70 21 89 89 Calm 30.05 1018 10 16 0.00 0.00
9:35 am 09:35 Mostly Cloudy 73 23 70 21 89 89 Calm 30.06 1018 10 16 0.00 0.00
9:55 am 09:55 Mostly Cloudy 75 24 70 21 83 83 Calm 30.06 1018 10 16 0.00 0.00
10:15 am 10:15 Partly Cloudy 79 26 70 21 74 74 VRB 5 7 30.05 1017 10 16 0.00 0.00
10:35 am 10:35 Sunny 81 27 66 19 62 62 Calm 30.04 1017 10 16 0.00 0.00
10:55 am 10:55 Sunny 81 27 66 19 62 62 VRB 3 6 30.04 1017 10 16 0.00 0.00
11:15 am 11:15 Sunny 82 28 68 20 62 62 SSE 6 9 30.04 1017 10 16 0.00 0.00
11:35 am 11:35 Sunny 82 28 66 19 58 58 Calm 30.04 1017 10 16 0.00 0.00
11:55 am 11:55 Partly Cloudy 82 28 66 19 58 58 S 6 9 30.03 1017 10 16 0.00 0.00
12:15 pm 12:15 Partly Cloudy 82 28 68 20 62 62 SSW 5 7 30.03 1017 10 16 0.00 0.00
12:35 pm 12:35 Mostly Sunny 84 29 66 19 55 55 VRB 5 7 30.02 1017 10 16 0.00 0.00
12:55 pm 12:55 Partly Cloudy 84 29 68 20 58 58 VRB 7 11 30.02 1017 10 16 0.00 0.00
1:15 pm 13:15 Partly Cloudy 84 29 70 21 62 62 Calm 30.02 1017 10 16 0.00 0.00
1:35 pm 13:35 Mostly Sunny 84 29 66 19 55 55 VRB 7 11 30.01 1016 10 16 0.00 0.00
1:55 pm 13:55 Mostly Cloudy 82 28 66 19 58 58 VRB 5 7 30.01 1016 10 16 0.00 0.00
2:15 pm 14:15 Mostly Cloudy 86 30 68 20 55 55 VRB 3 6 30.01 1016 10 16 0.00 0.00
2:35 pm 14:35 Mostly Sunny 86 30 66 19 52 52 Calm 30.00 1016 10 16 0.00 0.00
2:55 pm 14:55 Partly Cloudy 86 30 66 19 52 52 VRB 5 7 30.00 1016 10 16 0.00 0.00
3:15 pm 15:15 Partly Cloudy 88 31 66 19 49 49 S 6 9 29.98 1015 10 16 0.00 0.00
3:35 pm 15:35 Partly Cloudy 86 30 66 19 52 52 S 8 13 29.98 1015 10 16 0.00 0.00
3:55 pm 15:55 Mostly Cloudy 88 31 68 20 52 52 SW 5 7 29.98 1015 9 14 0.00 0.00
4:15 pm 16:15 Mostly Sunny 86 30 68 20 55 55 VRB 5 7 29.97 1015 10 16 0.00 0.00
4:35 pm 16:35 Mostly Sunny 86 30 66 19 52 52 VRB 5 7 29.97 1015 10 16 0.00 0.00
4:55 pm 16:55 Partly Cloudy 88 31 68 20 52 52 S 8 13 29.96 1015 10 16 0.00 0.00
5:15 pm 17:15 Mostly Sunny 86 30 66 19 52 52 VRB 6 9 29.96 1014 10 16 0.00 0.00
5:35 pm 17:35 Mostly Sunny 88 31 66 19 49 49 WSW 6 9 29.95 1014 10 16 0.00 0.00
5:55 pm 17:55 Sunny 86 30 66 19 52 52 SSW 7 11 29.94 1014 10 16 0.00 0.00
6:15 pm 18:15 Sunny 88 31 66 19 49 49 VRB 7 11 29.93 1014 10 16 0.00 0.00
6:35 pm 18:35 Sunny 86 30 66 19 52 52 VRB 6 9 29.94 1014 10 16 0.00 0.00
6:55 pm 18:55 Sunny 86 30 68 20 55 55 VRB 5 7 29.95 1014 10 16 0.00 0.00
7:15 pm 19:15 Sunny 86 30 68 20 55 55 SSW 6 9 29.95 1014 10 16 0.00 0.00
7:35 pm 19:35 Sunny 84 29 68 20 58 58 SSW 5 7 29.94 1014 10 16 0.00 0.00
7:55 pm 19:55 Sunny 84 29 68 20 58 58 S 3 6 29.93 1014 10 16 0.00 0.00
8:15 pm 20:15 Sunny 82 28 68 20 62 62 Calm 29.93 1014 10 16 0.00 0.00
8:35 pm 20:35 Clear 81 27 68 20 66 66 Calm 29.94 1014 10 16 0.00 0.00
8:55 pm 20:55 Clear 79 26 72 22 79 79 Calm 29.95 1014 10 16 0.00 0.00
9:15 pm 21:15 Clear 79 26 70 21 74 74 Calm 29.96 1014 10 16 0.00 0.00
9:35 pm 21:35 Mostly Clear 77 25 72 22 83 83 Calm 29.96 1015 10 16 0.00 0.00
9:55 pm 21:55 Partly Cloudy 75 24 72 22 89 89 Calm 29.96 1015 10 16 0.00 0.00
10:15 pm 22:15 Mostly Cloudy 77 25 72 22 83 83 Calm 29.96 1015 10 16 0.00 0.00
10:35 pm 22:35 Partly Cloudy 75 24 72 22 89 89 Calm 29.96 1015 10 16 0.00 0.00
10:55 pm 22:55 Clear 73 23 72 22 94 94 Calm 29.97 1015 10 16 0.00 0.00
11:15 pm 23:15 Clear 73 23 72 22 94 94 Calm 29.97 1015 10 16 0.00 0.00
11:35 pm 23:35 Clear 73 23 72 22 94 94 Calm 29.97 1015 10 16 0.00 0.00
11:55 pm 23:55 Clear 73 23 72 22 94 94 Calm 29.97 1015 10 16 0.00 0.00

Powered by AerisWeather